Terminal Aerodrome Forecast
Issued by NWS Columbia, SC

Home | Current Version | Previous Version | Text Only | Print | Product List | Glossary On
Versions: 1 2 3 4 5 6 7 8 9 10 11 12 13 14 15 16 17 18 19 20 21 22 23 24 25 26 27 28 29 30
000
FTUS42 KCAE 020251 AAB
TAFCAE
TAF AMD
KCAE 020251Z 0203/0224 24005KT P6SM SCT100 BKN250
      TEMPO 0203/0204 5SM -RA BR SCT050 BKN100
     FM021600 25014G24KT P6SM SCT040 BKN150=

USA.gov is the U.S. government's official web portal to all federal, state and local government web resources and services.